Thedford, NE

10:48 PM CST on February 08, 2016 (GMT -0600)
Thedford

Weather History for KTIF - October, 2012

Change the Weather History Date:

Sunday, October 7, 2012

  Actual Average (KLBF) Record (KLBF)
Temperature  
Mean Temperature 40 °F 53 °F  
Max Temperature 59 °F 68 °F 92 °F (1934)
Min Temperature 23 °F 37 °F 12 °F (1952)
Degree Days  
Heating Degree Days 24 13  
Month to date heating degree days 80  
Since 1 July heating degree days 251  
Cooling Degree Days 0 0  
Month to date cooling degree days 0  
Year to date cooling degree days 765  
Moisture  
Dew Point 23 °F    
Average Humidity 58    
Maximum Humidity 90    
Minimum Humidity 19    
Precipitation  
Precipitation 0.00 in 0.05 in 1.48 in (1946)
Month to date precipitation 0.38  
Year to date precipitation 18.01  
Snow  
Snow 0.00 in 0.00 in 0.20 in (1884)
Month to date snowfall 0.2  
Since 1 July snowfall 0.4  
Since 1 September snowfall 0.4  
Snow Depth -    
Sea Level Pressure  
Sea Level Pressure 30.10 in    
Wind  
Wind Speed 8 mph (West)    
Max Wind Speed 18 mph    
Max Gust Speed 25 mph    
Visibility 10 miles    
Events      
T = Trace of Precipitation, MM = Missing Value Source: NWS Daily Summary

Daily Weather History Graph

Daily Weather History Graph

Search for Another Location

Airport or City:

Trip Planner

Search our weather history database for the weather conditions in past years. The results will help you decide how hot, cold, wet, or windy it might be!

Date:

Astronomy

Oct. 07, 2012 Rise Set
Actual Time 7:46 AM CDT 7:12 PM CDT
Civil Twilight 7:18 AM CDT 7:40 PM CDT
Nautical Twilight 6:46 AM CDT 8:12 PM CDT
Astronomical Twilight 6:13 AM CDT 8:45 PM CDT
Moon No Moon Rise 2:28 PM CDT (10/7)
Length of Visible Light 12h 22m
Length of Day
11h 26m
Waning Gibbous, 56% of the Moon is Illuminated
Oct 7
Waning Gibbous
Oct 8
Last Quarter
Oct 15
New
Oct 21
First Quarter
Oct 29
Full

Hourly Weather History & Observations

Time (CDT) Temp. Windchill Dew Point Humidity Pressure Visibility Wind Dir Wind Speed Gust Speed Precip Events Conditions
12:15 AM 30.0 °F 21.7 °F 27.1 °F 89% 30.29 in 10.0 mi West 9.2 mph - N/A   Clear
12:35 AM 28.9 °F 21.9 °F 25.9 °F 88% 30.28 in 10.0 mi WSW 6.9 mph - N/A   Clear
12:55 AM 27.5 °F 22.2 °F 25.0 °F 90% 30.28 in 10.0 mi WSW 4.6 mph - N/A   Clear
1:15 AM 28.6 °F 20.7 °F 25.9 °F 90% 30.27 in 10.0 mi West 8.1 mph - N/A   Clear
1:35 AM 28.4 °F 19.7 °F 25.5 °F 89% 30.27 in 10.0 mi WSW 9.2 mph - N/A   Clear
1:55 AM 28.4 °F 20.4 °F 25.3 °F 88% 30.26 in 10.0 mi WSW 8.1 mph - N/A   Clear
2:15 AM 28.0 °F 20.0 °F 24.8 °F 88% 30.26 in 10.0 mi WSW 8.1 mph - N/A   Clear
2:35 AM 27.5 °F 19.3 °F 24.8 °F 90% 30.26 in 10.0 mi West 8.1 mph - N/A   Clear
2:55 AM 28.0 °F 20.8 °F 25.2 °F 89% 30.26 in 10.0 mi WSW 6.9 mph - N/A   Clear
3:15 AM 28.0 °F 21.7 °F 25.2 °F 89% 30.25 in 10.0 mi WSW 5.8 mph - N/A   Clear
3:35 AM 26.8 °F 20.2 °F 24.1 °F 90% 30.24 in 10.0 mi WSW 5.8 mph - N/A   Clear
3:55 AM 26.4 °F 20.9 °F 23.9 °F 90% 30.23 in 10.0 mi WSW 4.6 mph - N/A   Clear
4:15 AM 25.7 °F 19.0 °F 23.0 °F 89% 30.22 in 10.0 mi WSW 5.8 mph - N/A   Clear
4:35 AM 25.7 °F 19.0 °F 23.0 °F 89% 30.21 in 10.0 mi WSW 5.8 mph - N/A   Clear
4:55 AM 26.6 °F 19.1 °F 23.7 °F 89% 30.21 in 10.0 mi WSW 6.9 mph - N/A   Clear
5:15 AM 25.7 °F 20.1 °F 23.0 °F 89% 30.21 in 10.0 mi West 4.6 mph - N/A   Clear
5:35 AM 27.1 °F 18.9 °F 23.7 °F 87% 30.21 in 10.0 mi West 8.1 mph - N/A   Clear
5:55 AM 26.6 °F 18.2 °F 23.2 °F 87% 30.20 in 10.0 mi WSW 8.1 mph - N/A   Clear
6:15 AM 24.8 °F - 21.7 °F 88% 30.20 in 10.0 mi Calm Calm - N/A   Clear
6:35 AM 24.8 °F - 22.1 °F 89% 30.20 in 10.0 mi Calm Calm - N/A   Clear
6:55 AM 25.0 °F 17.1 °F 22.3 °F 89% 30.20 in 10.0 mi WSW 6.9 mph - N/A   Clear
7:15 AM 25.0 °F 17.1 °F 21.9 °F 88% 30.19 in 10.0 mi WSW 6.9 mph - N/A   Clear
7:35 AM 25.7 °F 19.0 °F 22.5 °F 88% 30.19 in 10.0 mi West 5.8 mph - N/A   Clear
7:55 AM 23.4 °F - 20.8 °F 90% 30.19 in 10.0 mi Calm Calm - N/A   Clear
8:15 AM 25.5 °F 19.9 °F 22.5 °F 88% 30.18 in 10.0 mi WSW 4.6 mph - N/A   Clear
8:35 AM 27.7 °F 20.4 °F 23.7 °F 85% 30.17 in 10.0 mi WSW 6.9 mph - N/A   Clear
8:55 AM 30.4 °F 23.6 °F 25.3 °F 82% 30.17 in 10.0 mi West 6.9 mph - N/A   Clear
9:15 AM 32.2 °F 25.8 °F 26.8 °F 80% 30.16 in 10.0 mi WSW 6.9 mph - N/A   Clear
9:35 AM 34.9 °F 28.3 °F 27.5 °F 74% 30.15 in 10.0 mi WSW 8.1 mph - N/A   Clear
9:55 AM 36.9 °F 28.7 °F 26.6 °F 66% 30.15 in 10.0 mi WSW 12.7 mph 17.3 mph N/A   Clear
10:15 AM 40.3 °F 32.2 °F 26.8 °F 59% 30.15 in 10.0 mi WSW 15.0 mph - N/A   Clear
10:35 AM 43.3 °F 36.5 °F 26.1 °F 51% 30.14 in 10.0 mi WSW 13.8 mph 19.6 mph N/A   Clear
10:55 AM 44.8 °F 38.3 °F 26.1 °F 48% 30.14 in 10.0 mi WSW 13.8 mph - N/A   Clear
11:15 AM 46.4 °F 40.4 °F 25.7 °F 44% 30.14 in 10.0 mi WSW 13.8 mph 19.6 mph N/A   Clear
11:35 AM 47.5 °F - 25.7 °F 43% 30.13 in 10.0 mi WSW 15.0 mph - N/A   Clear
11:55 AM 48.9 °F - 24.8 °F 39% 30.12 in 10.0 mi WSW 12.7 mph 19.6 mph N/A   Clear
12:15 PM 49.6 °F - 23.5 °F 36% 30.11 in 10.0 mi WSW 17.3 mph 24.2 mph N/A   Clear
12:35 PM 50.7 °F - 22.3 °F 33% 30.10 in 10.0 mi West 17.3 mph 20.7 mph N/A   Clear
12:55 PM 51.8 °F - 19.4 °F 28% 30.09 in 10.0 mi West 15.0 mph 23.0 mph N/A   Clear
1:15 PM 53.1 °F - 18.1 °F 25% 30.08 in 10.0 mi WSW 13.8 mph 20.7 mph N/A   Clear
1:35 PM 54.3 °F - 14.2 °F 20% 30.07 in 10.0 mi WNW 10.4 mph 24.2 mph N/A   Clear
1:55 PM 54.7 °F - 12.7 °F 19% 30.05 in 10.0 mi West 17.3 mph 24.2 mph N/A   Clear
2:15 PM 55.4 °F - 15.6 °F 21% 30.04 in 10.0 mi WNW 12.7 mph 25.3 mph N/A   Clear
2:35 PM 56.1 °F - 16.2 °F 21% 30.03 in 10.0 mi West 12.7 mph 24.2 mph N/A   Clear
2:55 PM 56.5 °F - 16.0 °F 20% 30.01 in 10.0 mi West 9.2 mph 18.4 mph N/A   Clear
3:15 PM 57.4 °F - 16.3 °F 20% 30.01 in 10.0 mi NW 10.4 mph 19.6 mph N/A   Clear
3:35 PM 58.1 °F - 17.6 °F 21% 29.99 in 10.0 mi West 18.4 mph 21.9 mph N/A   Clear
3:55 PM 58.5 °F - 18.9 °F 21% 29.99 in 10.0 mi WNW 16.1 mph - N/A   Clear
4:15 PM 58.3 °F - 20.3 °F 23% 29.98 in 10.0 mi WNW 17.3 mph 24.2 mph N/A   Clear
4:35 PM 58.6 °F - 20.5 °F 23% 29.98 in 10.0 mi West 12.7 mph 21.9 mph N/A   Clear
4:55 PM 58.3 °F - 21.6 °F 24% 29.97 in 10.0 mi WNW 13.8 mph 23.0 mph N/A   Clear
5:15 PM 58.1 °F - 22.3 °F 25% 29.97 in 10.0 mi WNW 9.2 mph 20.7 mph N/A   Clear
5:35 PM 58.1 °F - 22.8 °F 26% 29.97 in 10.0 mi WNW 15.0 mph 19.6 mph N/A   Clear
5:55 PM 57.4 °F - 22.6 °F 26% 29.97 in 10.0 mi WNW 10.4 mph 18.4 mph N/A   Clear
6:15 PM 57.2 °F - 23.0 °F 27% 29.96 in 10.0 mi WNW 11.5 mph - N/A   Clear
6:35 PM 56.5 °F - 23.4 °F 28% 29.96 in 10.0 mi WNW 9.2 mph - N/A   Clear
6:55 PM 54.9 °F - 23.7 °F 30% 29.96 in 10.0 mi WNW 5.8 mph - N/A   Clear
7:15 PM 50.9 °F - 22.8 °F 33% 29.96 in 10.0 mi WSW 5.8 mph - N/A   Clear
7:55 PM 45.5 °F - 22.3 °F 40% 29.96 in 10.0 mi Calm Calm - N/A   Clear
8:15 PM 44.8 °F 40.4 °F 22.6 °F 42% 29.97 in 10.0 mi SW 8.1 mph - N/A   Clear
8:35 PM 43.9 °F 39.3 °F 22.6 °F 43% 29.97 in 10.0 mi SW 8.1 mph - N/A   Clear
8:55 PM 44.2 °F 42.7 °F 23.7 °F 44% 29.97 in 10.0 mi West 3.5 mph - N/A   Clear
9:15 PM 44.2 °F 42.7 °F 24.3 °F 45% 29.97 in 10.0 mi West 3.5 mph - N/A   Clear
9:35 PM 42.8 °F - 24.4 °F 48% 29.98 in 10.0 mi Calm Calm - N/A   Clear
9:55 PM 40.5 °F 37.3 °F 24.4 °F 53% 29.98 in 10.0 mi SW 4.6 mph - N/A   Clear
10:15 PM 38.1 °F 33.7 °F 23.9 °F 57% 29.98 in 10.0 mi SW 5.8 mph - N/A   Clear
10:35 PM 38.3 °F 34.8 °F 24.4 °F 57% 29.97 in 10.0 mi WSW 4.6 mph - N/A   Clear
10:55 PM 38.3 °F 35.9 °F 24.6 °F 58% 29.97 in 10.0 mi WSW 3.5 mph - N/A   Clear
11:15 PM 37.4 °F 34.9 °F 24.6 °F 60% 29.96 in 10.0 mi West 3.5 mph - N/A   Clear
11:35 PM 37.2 °F 33.6 °F 24.8 °F 61% 29.96 in 10.0 mi SW 4.6 mph - N/A   Clear
11:55 PM 39.6 °F 33.5 °F 25.7 °F 58% 29.96 in 10.0 mi SW 9.2 mph - N/A   Clear